Shelbyville, IN

7:09 PM EST on December 15, 2019 (GMT -0500)
Shelbyville Municipal

Weather History for KGEZ - October, 2019

Change the Weather History Date:

Tuesday, October 29, 2019

  Actual Average Record
Temperature  
Mean Temperature 54 °F 50 °F  
Max Temperature 59 °F 61 °F 81 °F (2016)
Min Temperature 48 °F 39 °F 28 °F (2005)
Degree Days  
Heating Degree Days 11 15  
Month to date heating degree days 236 321  
Since 1 July heating degree days 239 406  
Cooling Degree Days 0 0  
Month to date cooling degree days 36 11  
Year to date cooling degree days 1330 910  
Growing Degree Days 4 (Base 50)    
Moisture  
Dew Point 49 °F    
Average Humidity 83    
Maximum Humidity 93    
Minimum Humidity 72    
Precipitation  
Precipitation 0.00 in 0.08 in 0.90 in (2002)
Month to date precipitation 3.77 2.94  
Year to date precipitation 35.98 36.39  
Sea Level Pressure  
Sea Level Pressure 30.13 in    
Wind  
Wind Speed 7 mph (SW)    
Max Wind Speed 14 mph    
Max Gust Speed 19 mph    
Visibility 9 miles    
Events      
T = Trace of Precipitation, MM = Missing Value Source: NWS Daily Summary

Daily Weather History Graph

Daily Weather History Graph

Search for Another Location

Airport or City:

Astronomy

Oct. 29, 2019 Rise Set
Actual Time 8:07 AM EDT 6:45 PM EDT
Civil Twilight 7:40 AM EDT 7:13 PM EDT
Nautical Twilight 7:08 AM EDT 7:44 PM EDT
Astronomical Twilight 6:37 AM EDT 8:15 PM EDT
Moon 9:40 AM EDT (10/29) 8:09 PM EDT (10/29)
Length of Visible Light 11h 32m
Length of Day
10h 37m
Waxing Crescent, 3% of the Moon is Illuminated
Oct 29
Waxing Crescent
Nov 4
First Quarter
Nov 12
Full
Nov 19
Last Quarter
Nov 26
New

Hourly Weather History & Observations

Time (EDT) Temp. Dew Point Humidity Pressure Visibility Wind Dir Wind Speed Gust Speed Precip Events Conditions
12:53 AM 48.9 °F 46.0 °F 90% 30.04 in 5.0 mi SSE 3.5 mph - N/A   Mostly Cloudy
1:53 AM 51.1 °F 48.9 °F 92% 30.04 in 5.0 mi South 4.6 mph - N/A   Overcast
2:53 AM 52.0 °F 48.9 °F 89% 30.04 in 5.0 mi South 4.6 mph - N/A   Overcast
3:53 AM 53.1 °F 48.9 °F 86% 30.06 in 7.0 mi SSW 4.6 mph - N/A   Overcast
4:53 AM 54.0 °F 48.9 °F 83% 30.04 in 10.0 mi South 6.9 mph - N/A   Overcast
5:53 AM 53.1 °F 48.9 °F 86% 30.06 in 9.0 mi South 6.9 mph - N/A   Overcast
6:53 AM 54.0 °F 48.9 °F 83% 30.06 in 10.0 mi South 8.1 mph - N/A   Overcast
7:53 AM 54.0 °F 50.0 °F 86% 30.08 in 10.0 mi SSW 5.8 mph - N/A   Overcast
8:50 AM 53.6 °F 50.0 °F 88% 30.10 in 8.0 mi South 8.1 mph - N/A   Mostly Cloudy
8:53 AM 54.0 °F 50.0 °F 86% 30.10 in 8.0 mi South 8.1 mph - N/A   Mostly Cloudy
9:00 AM 54.0 °F 50.0 °F 86% 30.10 in 9.0 mi South 6.9 mph - N/A   Mostly Cloudy
9:53 AM 55.0 °F 51.1 °F 86% 30.13 in 10.0 mi South 8.1 mph - N/A   Overcast
10:34 AM 57.0 °F 51.1 °F 81% 30.13 in 10.0 mi SSW 8.1 mph - N/A   Mostly Cloudy
10:53 AM 57.9 °F 51.1 °F 78% 30.14 in 10.0 mi SW 9.2 mph - N/A   Overcast
11:53 AM 57.9 °F 50.0 °F 75% 30.16 in 10.0 mi WSW 10.4 mph - N/A   Overcast
12:53 PM 57.9 °F 50.0 °F 75% 30.16 in 10.0 mi SW 6.9 mph - N/A   Overcast
1:33 PM 57.9 °F 50.0 °F 75% 30.14 in 10.0 mi SW 8.1 mph - N/A   Overcast
1:53 PM 59.0 °F 51.1 °F 75% 30.14 in 10.0 mi SSW 6.9 mph - N/A   Overcast
2:53 PM 57.9 °F 51.1 °F 78% 30.15 in 10.0 mi West 6.9 mph - N/A   Overcast
3:53 PM 57.9 °F 50.0 °F 75% 30.16 in 10.0 mi WSW 8.1 mph - N/A   Overcast
4:21 PM 59.0 °F 51.1 °F 75% 30.16 in 10.0 mi SSW 10.4 mph - N/A   Overcast
4:53 PM 59.0 °F 50.0 °F 72% 30.17 in 10.0 mi SSW 6.9 mph - N/A   Overcast
5:20 PM 59.0 °F 50.0 °F 72% 30.17 in 10.0 mi SW 5.8 mph - N/A   Overcast
5:53 PM 57.9 °F 50.0 °F 75% 30.18 in 10.0 mi WNW 9.2 mph - N/A   Overcast
6:53 PM 52.0 °F 46.9 °F 83% 30.20 in 10.0 mi NW 9.2 mph - N/A   Overcast
7:53 PM 50.0 °F 45.0 °F 83% 30.21 in 10.0 mi North 6.9 mph - N/A   Overcast
8:53 PM 48.9 °F 45.0 °F 86% 30.22 in 10.0 mi North 8.1 mph - N/A   Overcast
9:53 PM 48.9 °F 45.0 °F 86% 30.22 in 10.0 mi North 8.1 mph - N/A   Overcast
10:53 PM 48.9 °F 45.0 °F 86% 30.22 in 10.0 mi North 5.8 mph - N/A   Overcast
11:53 PM 48.0 °F 45.0 °F 89% 30.22 in 10.0 mi NNE 5.8 mph - N/A   Overcast